DW4604 Weather Reports


Display with metric or nautical units.
time (UTC)temp
F
wind
direction
speed
MPH
gust
MPH
rain 1hr
in
rain 24hr
in
rain mn
in
humidity
%
barometer
mb
20170323001945 41 72 6.0 14.0 0.00 0.44 0.00 90 1018.2
20170323001444 41 75 7.0 15.0 0.00 0.44 0.00 90 1018.3
20170323000944 41 76 6.0 15.0 0.00 0.44 0.00 90 1018.3
20170323000445 41 70 6.0 13.0 0.00 0.44 0.00 90 1018.4
20170322235944 41 74 7.0 13.0 0.00 0.44 0.00 91 1018.4
20170322235445 41 76 7.0 16.0 0.00 0.44 0.00 91 1018.4
20170322234944 41 75 7.0 16.0 0.00 0.44 0.00 91 1018.5
20170322234445 41 72 6.0 13.0 0.00 0.44 0.00 91 1018.4
20170322233944 41 69 6.0 14.0 0.00 0.44 0.00 91 1018.4
20170322233444 41 69 6.0 14.0 0.00 0.44 0.00 91 1018.3
20170322232944 41 70 6.0 12.0 0.00 0.44 0.00 91 1018.4
20170322232445 41 75 5.0 11.0 0.00 0.44 0.00 91 1018.4
20170322231944 40 76 5.0 12.0 0.00 0.44 0.00 91 1018.3
20170322231444 41 77 5.0 12.0 0.00 0.44 0.00 91 1018.4
20170322230945 41 78 5.0 12.0 0.00 0.44 0.00 91 1018.5
20170322230444 41 74 6.0 11.0 0.00 0.44 0.00 91 1018.5
20170322225946 41 70 6.0 12.0 0.00 0.44 0.00 91 1018.5
20170322225444 41 72 5.0 12.0 0.00 0.44 0.44 91 1018.6
20170322224945 41 74 4.0 11.0 0.00 0.44 0.44 91 1018.6
20170322224444 41 74 4.0 11.0 0.00 0.44 0.44 91 1018.6
20170322223945 40 74 4.0 11.0 0.00 0.44 0.44 91 1018.5
20170322223445 40 76 5.0 11.0 0.00 0.44 0.44 91 1018.5
20170322222944 41 78 5.0 11.0 0.00 0.44 0.44 91 1018.5
20170322222444 40 78 5.0 12.0 0.00 0.44 0.44 91 1018.5
20170322221945 40 82 5.0 12.0 0.00 0.44 0.44 91 1018.6
20170322221444 40 83 4.0 11.0 0.00 0.44 0.44 91 1018.6
20170322220945 40 80 3.0 11.0 0.00 0.44 0.44 91 1018.7
20170322220445 40 81 4.0 10.0 0.00 0.44 0.44 91 1018.6
20170322215944 40 80 5.0 12.0 0.00 0.44 0.44 91 1018.6
20170322215445 40 76 6.0 12.0 0.00 0.44 0.44 91 1018.6
20170322214944 40 80 5.0 11.0 0.00 0.44 0.44 92 1018.6
20170322214445 40 87 5.0 11.0 0.00 0.44 0.44 92 1018.7
20170322213945 40 88 5.0 10.0 0.00 0.44 0.44 92 1018.7
20170322213445 40 88 5.0 12.0 0.00 0.44 0.44 92 1018.8
20170322212944 40 85 4.0 12.0 0.00 0.44 0.44 92 1018.7
20170322212445 40 80 4.0 8.0 0.00 0.44 0.44 92 1018.7
20170322211945 40 80 5.0 10.0 0.00 0.44 0.44 92 1018.7
20170322211445 40 78 5.0 10.0 0.00 0.44 0.44 92 1018.7
20170322210945 40 74 4.0 10.0 0.00 0.44 0.44 92 1018.9
20170322210444 40 77 4.0 9.0 0.00 0.44 0.44 92 1018.8
20170322205945 40 81 4.0 9.0 0.00 0.44 0.44 92 1018.9
20170322205445 40 82 4.0 9.0 0.00 0.44 0.44 92 1018.9
20170322204945 40 82 4.0 9.0 0.00 0.44 0.44 92 1018.8
20170322204445 40 78 4.0 9.0 0.00 0.44 0.44 92 1018.7
20170322203945 40 76 3.0 8.0 0.00 0.44 0.44 92 1018.8
20170322203444 40 78 4.0 8.0 0.00 0.44 0.44 92 1018.9
20170322202945 40 80 4.0 10.0 0.00 0.44 0.44 92 1018.9
20170322202445 40 81 4.0 14.0 0.00 0.44 0.44 92 1018.9
20170322201945 40 80 5.0 14.0 0.00 0.44 0.44 92 1018.9
20170322201445 40 79 4.0 9.0 0.00 0.44 0.44 92 1018.8
20170322200945 40 78 4.0 9.0 0.00 0.44 0.44 93 1018.8
20170322200446 40 79 4.0 10.0 0.00 0.44 0.44 93 1018.7
20170322195945 40 82 5.0 14.0 0.00 0.44 0.44 93 1018.8
20170322195445 40 80 5.0 14.0 0.00 0.44 0.44 93 1018.8
20170322194945 40 78 5.0 12.0 0.00 0.44 0.44 94 1018.8
20170322194445 40 76 3.0 10.0 0.00 0.44 0.44 94 1018.9
20170322193946 39 78 3.0 6.0 0.00 0.44 0.44 94 1018.9
20170322193445 39 79 3.0 8.0 0.00 0.44 0.44 94 1019.0
20170322192946 39 73 3.0 8.0 0.00 0.44 0.44 94 1018.9
20170322192445 39 69 3.0 7.0 0.00 0.44 0.44 94 1018.9
20170322191945 39 69 4.0 7.0 0.00 0.44 0.44 94 1018.8
20170322191445 39 72 3.0 7.0 0.00 0.44 0.44 94 1018.8
20170322190945 39 73 3.0 7.0 0.00 0.44 0.44 94 1018.7
20170322190445 39 74 4.0 10.0 0.00 0.44 0.44 94 1018.8
20170322185946 39 74 4.0 10.0 0.00 0.44 0.44 94 1018.8
20170322185445 39 70 5.0 11.0 0.00 0.44 0.44 94 1018.7
20170322184946 39 68 6.0 12.0 0.00 0.44 0.44 94 1018.6
20170322184445 39 66 7.0 12.0 0.00 0.44 0.44 94 1018.6
20170322183945 39 65 6.0 12.0 0.00 0.44 0.44 94 1018.7
20170322183446 39 66 6.0 12.0 0.00 0.44 0.44 94 1018.7
20170322182945 39 68 6.0 11.0 0.00 0.44 0.44 94 1018.7
20170322182445 39 66 6.0 12.0 0.00 0.44 0.44 94 1018.6
20170322181946 39 65 5.0 12.0 0.00 0.44 0.44 94 1018.6
20170322181445 39 65 5.0 13.0 0.01 0.44 0.44 95 1018.7
20170322180946 39 65 5.0 13.0 0.01 0.44 0.44 95 1018.6
20170322180446 39 65 5.0 11.0 0.01 0.44 0.44 95 1018.6
20170322175946 39 64 4.0 11.0 0.01 0.44 0.44 95 1018.5
20170322175446 39 68 4.0 9.0 0.01 0.44 0.44 95 1018.5
20170322174945 39 69 4.0 9.0 0.01 0.44 0.44 95 1018.5
20170322174446 39 63 4.0 8.0 0.01 0.44 0.44 95 1018.5
20170322173945 39 61 4.0 8.0 0.01 0.44 0.44 95 1018.5
20170322173445 39 63 4.0 11.0 0.01 0.44 0.44 95 1018.5
20170322172946 39 65 5.0 11.0 0.02 0.44 0.44 95 1018.4
20170322172446 39 67 5.0 10.0 0.02 0.44 0.44 95 1018.5
20170322171945 39 66 5.0 10.0 0.01 0.43 0.43 95 1018.4
20170322171446 39 64 5.0 11.0 0.02 0.43 0.43 95 1018.3
20170322170946 39 64 6.0 11.0 0.02 0.43 0.43 96 1018.3
20170322170445 39 66 5.0 11.0 0.02 0.43 0.43 96 1018.2
20170322165946 39 65 5.0 10.0 0.02 0.43 0.43 96 1018.2
20170322165446 39 64 6.0 13.0 0.02 0.43 0.43 96 1018.3
20170322164945 38 67 6.0 13.0 0.03 0.43 0.43 96 1018.2
20170322164446 38 69 5.0 10.0 0.03 0.43 0.43 96 1018.2
20170322163946 38 71 5.0 9.0 0.04 0.43 0.43 96 1018.1
20170322163445 38 70 5.0 11.0 0.04 0.43 0.43 96 1018.1
20170322162946 38 68 6.0 11.0 0.04 0.43 0.43 96 1018.1
20170322162446 38 67 7.0 12.0 0.05 0.43 0.43 96 1018.0
20170322161945 38 67 8.0 16.0 0.06 0.43 0.43 96 1017.9
20170322161446 38 68 8.0 16.0 0.05 0.42 0.42 96 1017.9
20170322160946 38 66 7.0 14.0 0.06 0.42 0.42 96 1018.0
20170322160445 38 65 7.0 12.0 0.06 0.41 0.41 96 1017.9
20170322155946 38 64 6.0 12.0 0.06 0.41 0.41 96 1017.8
20170322155445 38 61 5.0 10.0 0.05 0.40 0.40 96 1017.9
20170322154946 38 62 5.0 9.0 0.05 0.40 0.40 96 1017.8
20170322154446 38 59 5.0 11.0 0.05 0.40 0.40 96 1017.7
20170322153946 38 55 5.0 12.0 0.05 0.39 0.39 96 1017.7
20170322153446 38 60 5.0 12.0 0.05 0.39 0.39 96 1017.6
20170322152946 38 61 4.0 10.0 0.04 0.39 0.39 96 1017.7
20170322152446 38 51 3.0 10.0 0.03 0.38 0.38 96 1017.6
20170322151946 38 48 3.0 8.0 0.02 0.37 0.37 96 1017.6
20170322151446 38 51 4.0 11.0 0.02 0.36 0.36 96 1017.6
20170322150946 38 51 4.0 12.0 0.02 0.36 0.36 96 1017.5
20170322150446 38 46 4.0 12.0 0.02 0.35 0.35 96 1017.5
20170322145946 38 44 4.0 10.0 0.02 0.35 0.35 96 1017.5
20170322145446 38 47 5.0 13.0 0.02 0.35 0.35 96 1017.4
20170322144946 39 47 4.0 13.0 0.04 0.35 0.35 96 1017.3
20170322144446 38 50 3.0 9.0 0.04 0.35 0.35 96 1017.4
20170322143946 39 50 4.0 10.0 0.03 0.35 0.35 96 1017.2
20170322143446 38 49 5.0 18.0 0.04 0.35 0.35 96 1017.1
20170322142947 38 53 6.0 18.0 0.05 0.35 0.35 96 1017.0
20170322142446 38 54 6.0 13.0 0.05 0.35 0.35 96 1016.9
20170322141946 38 54 6.0 13.0 0.05 0.34 0.34 95 1017.1
20170322141447 38 56 7.0 13.0 0.05 0.34 0.34 95 1017.0
20170322140946 38 53 7.0 14.0 0.06 0.34 0.34 95 1017.0
20170322140446 38 53 8.0 15.0 0.07 0.34 0.34 95 1016.8
20170322135947 38 54 7.0 15.0 0.07 0.33 0.33 95 1016.7
20170322135446 38 54 7.0 13.0 0.08 0.33 0.33 95 1017.0
20170322134947 38 59 7.0 13.0 0.06 0.31 0.31 95 1016.8
20170322134446 38 57 7.0 14.0 0.07 0.31 0.31 95 1016.8
20170322133946 38 53 6.0 14.0 0.07 0.31 0.31 95 1016.9
20170322133446 38 47 4.0 12.0 0.06 0.31 0.31 95 1017.0
20170322132947 38 44 4.0 11.0 0.06 0.30 0.30 95 1016.9
20170322132446 38 43 5.0 12.0 0.06 0.30 0.30 95 1016.9
20170322131946 38 41 6.0 12.0 0.06 0.29 0.29 95 1016.6
20170322131447 38 40 5.0 17.0 0.06 0.29 0.29 95 1016.7
20170322130947 38 38 5.0 17.0 0.05 0.28 0.28 95 1016.7
20170322130447 38 43 4.0 12.0 0.04 0.27 0.27 95 1016.6
20170322125946 39 47 3.0 12.0 0.03 0.26 0.26 95 1016.7
20170322125446 39 48 4.0 11.0 0.02 0.25 0.25 95 1016.7
20170322124947 39 49 5.0 13.0 0.02 0.25 0.25 95 1016.7
20170322124446 39 48 6.0 14.0 0.02 0.24 0.24 95 1016.3
20170322123946 39 49 5.0 14.0 0.02 0.24 0.24 95 1016.2
20170322123447 39 49 5.0 14.0 0.02 0.24 0.24 95 1016.4
20170322122947 39 48 5.0 14.0 0.02 0.24 0.24 95 1016.4
20170322122446 39 45 5.0 13.0 0.01 0.23 0.23 95 1016.3
20170322121947 39 42 5.0 15.0 0.01 0.23 0.23 95 1016.3
20170322121447 39 44 4.0 15.0 0.02 0.23 0.23 95 1016.3
20170322120946 39 47 5.0 12.0 0.02 0.23 0.23 95 1016.2
20170322120446 39 48 6.0 18.0 0.02 0.23 0.23 95 1016.0
20170322115947 39 46 5.0 18.0 0.02 0.23 0.23 95 1015.9
20170322115447 39 43 5.0 16.0 0.02 0.23 0.23 95 1015.9
20170322114946 39 41 7.0 16.0 0.02 0.23 0.23 94 1015.8
20170322114447 39 38 7.0 18.0 0.02 0.23 0.23 94 1015.8
20170322113947 39 40 7.0 18.0 0.02 0.23 0.23 94 1015.7
20170322113447 39 38 7.0 17.0 0.01 0.22 0.22 94 1015.8
20170322112947 39 43 6.0 20.0 0.01 0.22 0.22 94 1015.9
20170322112447 39 45 6.0 20.0 0.01 0.22 0.22 94 1016.1
20170322111947 39 38 6.0 16.0 0.01 0.21 0.21 94 1015.9
20170322111447 39 37 7.0 16.0 0.01 0.21 0.21 94 1015.7
20170322110947 39 40 6.0 16.0 0.01 0.21 0.21 94 1015.7
20170322110446 39 43 5.0 16.0 0.01 0.21 0.21 94 1015.6
20170322105947 39 37 7.0 15.0 0.01 0.21 0.21 94 1015.7
20170322105447 39 32 7.0 18.0 0.01 0.21 0.21 94 1015.6
20170322104947 39 29 7.0 18.0 0.01 0.21 0.21 94 1015.6
20170322104447 39 34 7.0 15.0 0.01 0.21 0.21 94 1015.6
20170322103947 39 35 7.0 15.0 0.01 0.21 0.21 94 1015.8
20170322103447 39 31 7.0 16.0 0.01 0.21 0.21 94 1015.8
20170322102947 39 34 7.0 16.0 0.02 0.21 0.21 95 1015.9
20170322102446 39 35 7.0 17.0 0.01 0.20 0.20 95 1015.8
20170322101947 39 30 7.0 17.0 0.01 0.20 0.20 95 1015.9
20170322101447 39 31 6.0 13.0 0.01 0.20 0.20 95 1015.9
20170322100947 39 31 6.0 16.0 0.01 0.20 0.20 95 1015.9
20170322100447 39 29 7.0 16.0 0.01 0.20 0.20 94 1015.8
20170322095947 40 26 8.0 20.0 0.01 0.20 0.20 95 1015.7
20170322095447 40 26 7.0 20.0 0.02 0.20 0.20 95 1015.6
20170322094947 40 31 6.0 16.0 0.02 0.20 0.20 95 1015.6
20170322094447 40 30 6.0 16.0 0.02 0.20 0.20 95 1015.5
20170322093947 40 27 6.0 16.0 0.02 0.20 0.20 95 1015.3
20170322093447 40 30 6.0 15.0 0.02 0.20 0.20 95 1015.2
20170322092947 41 34 6.0 14.0 0.02 0.20 0.20 95 1015.4
20170322092447 41 32 6.0 13.0 0.02 0.20 0.20 95 1015.3
20170322091947 41 30 6.0 13.0 0.02 0.20 0.20 95 1015.3
20170322091447 41 29 6.0 18.0 0.02 0.20 0.20 95 1015.3
20170322090947 41 27 8.0 20.0 0.02 0.20 0.20 95 1015.0
20170322090448 41 29 8.0 20.0 0.02 0.20 0.20 95 1014.9
20170322085947 41 29 8.0 20.0 0.02 0.20 0.20 95 1014.8
20170322085448 41 29 8.0 20.0 0.02 0.19 0.19 94 1014.7
20170322084947 41 29 8.0 17.0 0.02 0.19 0.19 94 1014.7
20170322084448 41 27 9.0 21.0 0.02 0.19 0.19 94 1014.6
20170322083947 42 21 9.0 21.0 0.02 0.19 0.19 94 1014.5
20170322083448 42 22 9.0 18.0 0.02 0.18 0.18 94 1014.6
20170322082948 42 17 8.0 17.0 0.02 0.18 0.18 94 1014.6
20170322082448 43 1 5.0 17.0 0.02 0.17 0.17 95 1014.4
20170322081948 44 11 3.0 12.0 0.02 0.17 0.17 96 1014.4
20170322081447 45 33 3.0 7.0 0.02 0.17 0.17 96 1014.3
20170322080948 45 39 4.0 11.0 0.03 0.17 0.17 96 1014.0
20170322080448 45 38 4.0 11.0 0.03 0.17 0.17 96 1013.9
20170322075947 45 43 3.0 10.0 0.03 0.17 0.17 96 1013.9
20170322075448 45 50 4.0 11.0 0.03 0.17 0.17 96 1014.0
20170322074947 45 52 4.0 11.0 0.03 0.17 0.17 96 1013.7
20170322074447 45 52 5.0 11.0 0.04 0.17 0.17 96 1013.6
20170322073948 45 49 5.0 10.0 0.03 0.17 0.17 96 1013.8
20170322073447 45 44 4.0 10.0 0.02 0.16 0.16 96 1013.7
20170322072947 45 43 4.0 10.0 0.03 0.16 0.16 96 1013.6
20170322072447 46 44 3.0 10.0 0.02 0.15 0.15 97 1013.6
20170322071947 46 49 3.0 8.0 0.03 0.15 0.15 97 1013.4
20170322071448 46 47 3.0 7.0 0.03 0.15 0.15 97 1013.5
20170322070948 46 46 2.0 7.0 0.03 0.14 0.14 97 1013.6
20170322070447 46 50 2.0 6.0 0.03 0.14 0.14 97 1013.6
20170322065948 46 36 3.0 8.0 0.03 0.14 0.14 97 1013.5
20170322065447 46 32 2.0 8.0 0.04 0.14 0.14 97 1013.4
20170322064948 46 41 1.0 6.0 0.04 0.14 0.14 97 1013.4
20170322064448 46 32 2.0 5.0 0.03 0.13 0.13 97 1013.3
20170322063947 46 31 2.0 6.0 0.04 0.13 0.13 97 1013.3
20170322063448 46 26 2.0 6.0 0.04 0.13 0.13 97 1013.2
20170322062948 46 17 2.0 6.0 0.04 0.13 0.13 97 1013.2
20170322062448 46 15 1.0 5.0 0.04 0.13 0.13 97 1013.0
20170322061948 46 28 1.0 5.0 0.03 0.12 0.12 97 1013.0
20170322061448 46 35 1.0 5.0 0.03 0.11 0.11 97 1013.0
20170322060948 45 19 0.0 3.0 0.03 0.11 0.11 97 1012.9
20170322060448 45 19 1.0 3.0 0.03 0.11 0.11 97 1012.9
20170322055948 45 12 1.0 3.0 0.04 0.11 0.11 97 1012.9
20170322055448 45 356 1.0 2.0 0.03 0.10 0.10 97 1012.8
20170322054948 45 6 0.0 2.0 0.03 0.10 0.10 97 1012.8
20170322054448 45 3 0.0 2.0 0.04 0.10 0.10 97 1012.8
20170322053948 45 324 0.0 1.0 0.03 0.09 0.09 97 1012.8
20170322053448 45 0 0.0 0.0 0.03 0.09 0.09 97 1012.9
20170322052948 45 324 0.0 1.0 0.02 0.09 0.09 97 1013.0
20170322052448 45 323 0.0 1.0 0.02 0.09 0.09 97 1013.0
20170322051948 45 321 0.0 1.0 0.02 0.09 0.09 96 1012.9
20170322051448 45 321 0.0 1.0 0.02 0.08 0.08 96 1012.8
20170322050948 45 0 0.0 0.0 0.02 0.08 0.08 96 1012.8
20170322050448 45 314 0.0 2.0 0.02 0.08 0.08 96 1012.7
20170322045948 45 315 1.0 3.0 0.01 0.07 0.07 96 1012.7
20170322045448 45 314 1.0 3.0 0.01 0.07 0.07 96 1012.7
20170322044948 45 316 1.0 3.0 0.02 0.07 0.07 96 1012.7
20170322044448 45 322 0.0 2.0 0.01 0.06 0.06 96 1012.6
20170322043948 45 316 0.0 1.0 0.01 0.06 0.06 96 1012.5
20170322043448 44 292 0.0 1.0 0.01 0.06 0.06 96 1012.4
20170322042949 44 288 0.0 1.0 0.01 0.06 0.06 96 1012.4
20170322042448 44 0 0.0 0.0 0.01 0.06 0.06 96 1012.4
20170322041948 44 0 0.0 0.0 0.02 0.06 0.06 96 1012.4
20170322041448 44 0 0.0 0.0 0.02 0.06 0.06 95 1012.3
20170322040949 44 0 0.0 0.0 0.02 0.06 0.06 95 1012.3
20170322040448 45 0 0.0 0.0 0.02 0.06 0.06 95 1012.2
20170322035948 45 0 0.0 0.0 0.02 0.06 0.06 95 1012.1
20170322035449 45 238 0.0 1.0 0.02 0.06 0.06 95 1012.1
20170322034948 45 238 0.0 1.0 0.02 0.06 0.06 95 1012.0
20170322034448 45 0 0.0 0.0 0.02 0.06 0.06 95 1012.0
20170322033949 45 0 0.0 0.0 0.02 0.06 0.06 95 1012.0
20170322033448 45 0 0.0 0.0 0.02 0.06 0.06 94 1011.8
20170322032948 46 0 0.0 0.0 0.03 0.06 0.06 94 1011.9
20170322032449 46 305 0.0 1.0 0.03 0.06 0.06 94 1011.9
20170322031948 46 303 0.0 1.0 0.04 0.05 0.05 94 1012.0
20170322031448 46 301 0.0 1.0 0.05 0.05 0.05 94 1011.9
20170322030949 46 0 0.0 0.0 0.05 0.05 0.05 94 1011.9
20170322030448 46 0 0.0 0.0 0.04 0.04 0.04 94 1011.8
20170322025949 46 318 1.0 4.0 0.04 0.04 0.04 94 1011.7
20170322025449 46 326 1.0 4.0 0.04 0.04 0.04 93 1011.7
20170322024948 46 334 1.0 4.0 0.03 0.03 0.03 93 1011.7
20170322024449 46 6 1.0 3.0 0.03 0.03 0.03 93 1011.6
20170322023949 46 356 2.0 4.0 0.03 0.03 0.03 92 1011.6
20170322023448 46 339 2.0 5.0 0.03 0.03 0.03 92 1011.7
20170322022949 46 322 2.0 5.0 0.02 0.02 0.02 91 1011.6
20170322022448 46 309 2.0 5.0 0.02 0.02 0.02 90 1011.7
20170322021949 46 309 2.0 6.0 0.01 0.01 0.01 89 1011.8
20170322021448 46 311 2.0 6.0 0.00 0.00 0.00 88 1011.6
20170322020948 46 312 2.0 5.0 0.00 0.00 0.00 87 1011.6
20170322020449 46 312 2.0 5.0 0.00 0.00 0.00 88 1011.5
20170322015949 46 313 2.0 5.0 0.00 0.00 0.00 89 1011.4
20170322015449 45 313 1.0 5.0 0.00 0.00 0.00 91 1011.3
20170322014949 44 300 0.0 2.0 0.00 0.00 0.00 90 1011.3
20170322014448 44 15 0.0 1.0 0.00 0.00 0.00 90 1011.3
20170322013949 44 44 0.0 1.0 0.00 0.00 0.00 90 1011.0
20170322013449 45 0 0.0 0.0 0.00 0.00 0.00 90 1011.0
20170322012949 45 0 0.0 0.0 0.00 0.00 0.00 90 1010.9
20170322012449 44 0 0.0 0.0 0.00 0.00 0.00 90 1010.9
20170322011949 45 0 0.0 0.0 0.00 0.00 0.00 90 1010.9
20170322011449 45 0 0.0 0.0 0.00 0.00 0.00 90 1010.8
20170322010949 45 0 0.0 0.0 0.00 0.00 0.00 89 1010.9
20170322010449 45 0 0.0 0.0 0.00 0.00 0.00 89 1010.9
20170322005949 45 0 0.0 0.0 0.00 0.00 0.00 89 1010.8
20170322005449 45 0 0.0 0.0 0.00 0.00 0.00 89 1010.7
20170322004949 45 0 0.0 0.0 0.00 0.00 0.00 89 1010.6
20170322004448 45 43 0.0 1.0 0.00 0.00 0.00 89 1010.6
20170322003949 45 43 0.0 1.0 0.00 0.00 0.00 89 1010.6
20170322003449 45 0 0.0 0.0 0.00 0.00 0.00 89 1010.7
20170322002949 45 43 0.0 1.0 0.00 0.00 0.00 88 1010.7
20170322002449 45 43 0.0 1.0 0.00 0.00 0.00 88 1010.6